[[{"header":{"parameterUnit":"m.s-1","parameterCategory":1,"la1":30.2991,"la2":30.254,"lo1":-89.0895,"lo2":-89.0444,"dy":0.0017,"dx":0.0017,"nx":28,"ny":28,"refTime":"2024-07-10T03:00:00:Z","depth":0,"parameterNumber":2,"parameterNumberName":"U-component_of_WINDS"},"data":[0,0,0,0,0,0,0,0,0,0,0,0,0,0,0,0,0,0,0,0,0,0,0,0,0,0,0,0,0,0,0,0,0,0,0,0,0,0,0,0,0,0,0,0,0,0,0,0,0,0,0,0,0,0,0,0,0,0,-1.5355,-1.5354,0,-1.5264,-1.5263,-1.5262,-1.5258,-1.5259,-1.526,-1.5261,-1.5161,-1.5158,-1.5154,0,0,0,0,0,0,0,0,0,0,0,0,0,-1.5517,-1.5514,-1.5355,-1.5354,-1.5353,-1.5264,-1.5263,-1.5262,-1.5258,-1.5259,-1.5261,-1.5262,-1.5162,-1.5158,-1.5154,0,0,0,0,0,0,0,0,0,0,0,0,0,-1.5438,-1.5513,-1.5355,-1.534,-1.5338,-1.5264,-1.5263,-1.5261,-1.5258,-1.5259,-1.5261,-1.5263,-1.5164,-1.5158,-1.5153,-1.5086,0,0,-1.5136,-1.5134,0,0,0,0,0,0,0,0,-1.5443,-1.5432,-1.5344,-1.5341,-1.5339,-1.5274,-1.5283,-1.5202,-1.5257,-1.5288,-1.5262,-1.5263,-1.5197,-1.5189,-1.5168,-1.5081,-1.5077,-1.5136,-1.5132,-1.513,-1.5128,0,0,0,0,0,0,0,-1.5448,-1.5436,-1.5319,-1.5342,-1.5339,-1.5336,-1.5326,-1.5268,-1.5234,-1.5285,-1.5285,-1.5275,-1.5196,-1.5173,-1.5166,-1.5075,-1.5136,-1.5131,-1.5127,-1.5125,-1.4924,-1.4922,0,0,0,0,0,0,-1.5458,-1.5441,-1.5322,-1.5316,-1.5396,-1.5331,-1.5321,-1.5293,-1.5235,-1.5228,-1.5273,-1.5275,-1.5182,-1.5172,-1.5162,-1.5076,-1.513,-1.5125,-1.5121,-1.4926,-1.4923,-1.4921,0,0,0,0,0,0,-1.5461,-1.5447,-1.5325,-1.5378,-1.5362,-1.5327,-1.5296,-1.529,-1.5268,-1.5226,-1.5219,-1.5257,-1.5183,-1.517,-1.5104,-1.5072,-1.5122,-1.5117,-1.4928,-1.4925,-1.4922,-1.4905,0,0,0,0,0,0,-1.5466,-1.5449,-1.5424,-1.5378,-1.536,-1.5271,-1.5294,-1.5287,-1.5259,-1.526,-1.5208,-1.5201,-1.5183,-1.5112,-1.5099,-1.5066,-1.5113,-1.4931,-1.4927,-1.4923,-1.4908,-1.4902,-1.4897,0,0,0,0,0,-1.5472,-1.5423,-1.5423,-1.5409,-1.5329,-1.527,-1.5259,-1.5241,-1.5257,-1.523,-1.5203,-1.5203,-1.5079,-1.5106,-1.509,-1.5055,-1.4933,-1.4928,-1.4924,-1.4911,-1.4903,-1.4897,0,0,0,0,0,0,-1.5464,-1.5416,-1.5416,-1.5351,-1.5315,-1.5269,-1.5236,-1.5234,-1.519,-1.5193,-1.517,-1.5158,-1.5092,-1.5068,-1.5098,-1.4985,-1.5007,-1.4999,-1.5003,-1.4995,-1.499,-1.4995,-1.5108,0,0,0,0,0,-1.5455,-1.5413,-1.5373,-1.5319,-1.5301,-1.5272,-1.5245,-1.5234,-1.5195,-1.5178,-1.5146,-1.5105,-1.5057,-1.5025,-1.4979,-1.4906,-1.4892,-1.4874,-1.4868,-1.4863,-1.4856,-1.4811,-1.4801,-1.4906,-1.4906,-1.4906,0,0,-1.5435,-1.5404,-1.5379,-1.5317,-1.5287,-1.5241,-1.5258,-1.521,-1.5174,-1.517,-1.5106,-1.5081,-1.5034,-1.4963,-1.4931,-1.494,-1.4824,-1.4858,-1.4854,-1.4849,-1.4806,-1.4796,-1.4787,-1.4903,-1.4904,-1.4904,0,0,-1.5375,-1.5349,-1.53,-1.527,-1.5226,-1.5207,-1.5195,-1.515,-1.5133,-1.5069,-1.5064,-1.5021,-1.4939,-1.4904,-1.4876,-1.4802,-1.4798,-1.4787,-1.4755,-1.4712,-1.4704,-1.4696,-1.4666,-1.4656,-1.4781,-1.4781,-1.478,0,-1.5355,-1.5289,-1.5274,-1.5225,-1.5196,-1.5193,-1.5141,-1.5112,-1.5054,-1.5032,-1.5045,-1.494,-1.4909,-1.4828,-1.481,-1.4789,-1.4771,-1.4792,-1.4707,-1.4699,-1.4692,-1.4662,-1.4651,-1.4779,-1.4779,-1.4779,-1.478,0,-1.5264,-1.5218,-1.5183,-1.5128,-1.5096,-1.5045,-1.502,-1.4989,-1.4981,-1.4959,-1.4892,-1.4854,-1.4798,-1.4779,-1.4771,-1.4696,-1.4703,-1.4712,-1.4733,-1.468,-1.4652,-1.4641,-1.4777,-1.4778,-1.4778,-1.4778,0,0,-1.5195,-1.5134,-1.5121,-1.5095,-1.5045,-1.5007,-1.4956,-1.4903,-1.4874,-1.4834,-1.4787,-1.4718,-1.4725,-1.4693,-1.468,-1.4643,-1.4582,-1.4655,-1.4654,-1.464,-1.4493,-1.4484,-1.4472,-1.4581,-1.4579,-1.4577,-1.4495,0,-1.5126,-1.5036,-1.5022,-1.4941,-1.4895,-1.4892,-1.4846,-1.4809,-1.4787,-1.4743,-1.4718,-1.4668,-1.4683,-1.4663,-1.4627,-1.4597,-1.4551,-1.4603,-1.4533,-1.453,-1.4541,-1.4458,-1.4449,-1.4373,-1.4485,-1.4483,-1.4482,0,-1.5034,-1.4993,-1.4909,-1.4863,-1.4844,-1.4803,-1.4752,-1.4712,-1.4668,-1.4655,-1.4619,-1.461,-1.4553,-1.4579,-1.4497,-1.4533,-1.4503,-1.4484,-1.4481,-1.447,-1.45,-1.4441,-1.4349,-1.4336,-1.4465,-1.4466,-1.4468,0,-1.4987,-1.4911,-1.485,-1.4828,-1.4775,-1.4746,-1.4721,-1.468,-1.4649,-1.4604,-1.4582,-1.4531,-1.4501,-1.446,-1.4436,-1.4459,-1.4354,-1.438,-1.4338,-1.4338,-1.4313,-1.4314,-1.4211,-1.4301,-1.4301,-1.4301,-1.4301,0,-1.491,-1.4857,-1.4827,-1.4789,-1.4729,-1.4712,-1.4652,-1.4628,-1.4591,-1.4545,-1.4539,-1.4496,-1.447,-1.4422,-1.4403,-1.4335,-1.4323,-1.4308,-1.4303,-1.4306,-1.4307,-1.4283,-1.4286,-1.4298,-1.4299,-1.4299,-1.43,0,-1.4846,-1.4824,-1.4756,-1.4712,-1.47,-1.4657,-1.4617,-1.4578,-1.4557,-1.4499,-1.4485,-1.445,-1.4393,-1.4367,-1.4297,-1.4284,-1.4205,-1.4206,-1.422,-1.4217,-1.4175,-1.4178,-1.405,-1.403,-1.4137,-1.4136,-1.4135,0,-1.4796,-1.4755,-1.4707,-1.4677,-1.4653,-1.4605,-1.4573,-1.4554,-1.4521,-1.4468,-1.4434,-1.4378,-1.4331,-1.424,-1.4206,-1.4151,-1.4148,-1.4107,-1.4139,-1.4143,-1.4142,-1.4143,-1.4136,-1.4099,-1.4098,-1.4098,-1.4097,0,-1.4708,-1.47,-1.4655,-1.4606,-1.4569,-1.4529,-1.449,-1.4465,-1.4439,-1.4401,-1.4344,-1.4308,-1.4236,-1.4178,-1.4121,-1.4093,-1.4088,-1.4088,-1.4074,-1.4075,-1.4083,-1.4074,-1.42,-1.409,-1.409,-1.4091,-1.4091,-1.4092,-1.4647,-1.4609,-1.4569,-1.4519,-1.4488,-1.4451,-1.4411,-1.4386,-1.4339,-1.428,-1.4271,-1.4209,-1.4164,-1.4087,-1.4057,-1.4006,-1.4015,-1.3996,-1.3991,-1.3985,-1.3981,-1.4095,-1.3996,-1.3996,-1.3996,-1.3996,-1.3996,0,-1.4555,-1.453,-1.4484,-1.443,-1.4389,-1.4393,-1.4349,-1.4314,-1.426,-1.422,-1.4175,-1.4107,-1.4051,-1.4013,-1.3956,-1.3921,-1.3918,-1.3906,-1.3906,-1.3899,-1.3978,-1.3994,-1.391,-1.391,-1.391,-1.391,-1.391,-1.391,-1.4503,-1.4439,-1.4425,-1.4344,-1.4318,-1.4259,-1.4233,-1.4197,-1.4165,-1.409,-1.4044,-1.4022,-1.3981,-1.392,-1.3867,-1.3857,-1.3834,-1.3822,-1.3811,-1.3885,-1.3894,-1.3902,-1.3917,-1.3818,-1.3818,-1.3736,-1.3735,-1.3735]},{"header":{"parameterUnit":"m.s-1","parameterCategory":1,"la1":30.2991,"la2":30.254,"lo1":-89.0895,"lo2":-89.0444,"dy":0.0017,"dx":0.0017,"nx":28,"ny":28,"refTime":"2024-07-10T03:00:00:Z","depth":0,"parameterNumber":3,"parameterNumberName":"V-component_of_WINDS"},"data":[0,0,0,0,0,0,0,0,0,0,0,0,0,0,0,0,0,0,0,0,0,0,0,0,0,0,0,0,0,0,0,0,0,0,0,0,0,0,0,0,0,0,0,0,0,0,0,0,0,0,0,0,0,0,0,0,0,0,-0.1803,-0.1804,0,-0.1879,-0.188,-0.188,-0.191,-0.191,-0.1909,-0.1909,-0.1988,-0.199,-0.1992,0,0,0,0,0,0,0,0,0,0,0,0,0,-0.1683,-0.1685,-0.1803,-0.1804,-0.1805,-0.1879,-0.188,-0.1881,-0.191,-0.191,-0.1909,-0.1909,-0.1987,-0.1989,-0.1992,0,0,0,0,0,0,0,0,0,0,0,0,0,-0.1745,-0.1686,-0.1803,-0.1828,-0.1831,-0.1878,-0.188,-0.1881,-0.191,-0.191,-0.1909,-0.1909,-0.1986,-0.1989,-0.1993,-0.202,0,0,-0.2003,-0.2005,0,0,0,0,0,0,0,0,-0.1741,-0.1749,-0.1824,-0.1827,-0.183,-0.1885,-0.1866,-0.1928,-0.191,-0.188,-0.1909,-0.1909,-0.1954,-0.196,-0.1975,-0.2024,-0.2027,-0.2003,-0.2005,-0.2007,-0.2008,0,0,0,0,0,0,0,-0.1737,-0.1746,-0.1833,-0.1825,-0.1829,-0.1836,-0.1844,-0.1878,-0.1918,-0.1883,-0.1885,-0.1894,-0.1955,-0.1971,-0.1977,-0.2028,-0.2003,-0.2006,-0.2008,-0.201,-0.2103,-0.2103,0,0,0,0,0,0,-0.1728,-0.1742,-0.183,-0.1835,-0.1784,-0.1838,-0.1848,-0.1867,-0.1917,-0.1925,-0.1894,-0.1895,-0.1966,-0.1973,-0.1979,-0.2015,-0.2007,-0.201,-0.2012,-0.2102,-0.2103,-0.2103,0,0,0,0,0,0,-0.1726,-0.1736,-0.1827,-0.1789,-0.1802,-0.1841,-0.1863,-0.1869,-0.1885,-0.1926,-0.1933,-0.1903,-0.1966,-0.1975,-0.201,-0.2018,-0.2012,-0.2015,-0.2102,-0.2102,-0.2103,-0.2085,0,0,0,0,0,0,-0.1722,-0.1735,-0.1746,-0.1789,-0.1803,-0.1856,-0.1863,-0.1871,-0.1891,-0.1893,-0.1936,-0.1943,-0.1966,-0.2004,-0.2013,-0.2022,-0.2017,-0.2101,-0.2102,-0.2103,-0.2085,-0.2085,-0.2085,0,0,0,0,0,-0.1718,-0.1738,-0.1746,-0.1757,-0.1818,-0.1857,-0.1865,-0.1891,-0.1891,-0.1903,-0.1929,-0.1942,-0.2015,-0.2008,-0.2018,-0.2028,-0.2101,-0.2102,-0.2103,-0.2085,-0.2085,-0.2085,0,0,0,0,0,0,-0.1695,-0.1744,-0.1754,-0.1789,-0.1818,-0.1862,-0.1877,-0.189,-0.192,-0.192,-0.1951,-0.1961,-0.1993,-0.2014,-0.2005,-0.2057,-0.2059,-0.2062,-0.2042,-0.2042,-0.2042,-0.2037,-0.202,0,0,0,0,0,-0.1694,-0.1721,-0.1763,-0.179,-0.1804,-0.1837,-0.1855,-0.1873,-0.1904,-0.1917,-0.1946,-0.1976,-0.2006,-0.2025,-0.2055,-0.2088,-0.2098,-0.21,-0.21,-0.21,-0.2102,-0.2121,-0.2122,-0.2106,-0.2106,-0.2106,0,0,-0.1692,-0.1723,-0.1738,-0.1786,-0.1811,-0.1838,-0.1848,-0.1877,-0.1897,-0.1922,-0.1956,-0.1978,-0.2014,-0.2048,-0.2064,-0.2066,-0.2108,-0.2101,-0.21,-0.2103,-0.2122,-0.2123,-0.2124,-0.2107,-0.2107,-0.2107,0,0,-0.1703,-0.1729,-0.1754,-0.1778,-0.1816,-0.1838,-0.1843,-0.1885,-0.19,-0.1935,-0.1954,-0.1978,-0.2029,-0.2054,-0.2073,-0.2092,-0.2105,-0.2101,-0.2101,-0.2118,-0.2119,-0.2121,-0.2127,-0.2129,-0.2103,-0.2103,-0.2103,0,-0.1697,-0.1739,-0.1765,-0.1793,-0.1813,-0.1836,-0.1861,-0.1883,-0.1928,-0.1942,-0.1943,-0.2007,-0.2033,-0.2073,-0.2077,-0.2092,-0.2099,-0.2097,-0.2117,-0.2119,-0.212,-0.2127,-0.2129,-0.2102,-0.2102,-0.2102,-0.2102,0,-0.1729,-0.1758,-0.1773,-0.1816,-0.1838,-0.1864,-0.1894,-0.1913,-0.1928,-0.195,-0.1985,-0.2016,-0.2052,-0.2063,-0.2078,-0.2104,-0.2105,-0.2111,-0.2114,-0.212,-0.2127,-0.213,-0.2101,-0.2101,-0.2102,-0.2102,0,0,-0.1729,-0.1785,-0.179,-0.181,-0.1852,-0.1874,-0.1901,-0.1936,-0.1952,-0.1982,-0.2005,-0.2047,-0.2053,-0.2075,-0.2093,-0.2108,-0.212,-0.2113,-0.2114,-0.2113,-0.2151,-0.2146,-0.2149,-0.2129,-0.2129,-0.213,-0.2148,0,-0.1746,-0.1796,-0.1819,-0.1858,-0.1885,-0.1906,-0.1929,-0.1957,-0.1978,-0.2004,-0.2026,-0.2056,-0.2061,-0.2074,-0.209,-0.2115,-0.2128,-0.2114,-0.2151,-0.2152,-0.2142,-0.2152,-0.2148,-0.2164,-0.2151,-0.2151,-0.2152,0,-0.1773,-0.1802,-0.1844,-0.1882,-0.1894,-0.1915,-0.1948,-0.1972,-0.2004,-0.2018,-0.2042,-0.2059,-0.2087,-0.2087,-0.2127,-0.2117,-0.2133,-0.2147,-0.2148,-0.2153,-0.2153,-0.2158,-0.2169,-0.2172,-0.2156,-0.2156,-0.2155,0,-0.1769,-0.1819,-0.185,-0.1866,-0.1911,-0.1925,-0.1944,-0.1976,-0.1995,-0.2025,-0.2037,-0.2069,-0.2087,-0.2111,-0.2136,-0.2134,-0.2173,-0.2175,-0.2186,-0.2185,-0.2194,-0.2193,-0.2208,-0.2203,-0.2203,-0.2203,-0.2203,0,-0.1786,-0.1811,-0.1849,-0.1868,-0.1896,-0.1923,-0.1949,-0.197,-0.1998,-0.2022,-0.2041,-0.2063,-0.2094,-0.2119,-0.2139,-0.2169,-0.2176,-0.2188,-0.2193,-0.2187,-0.2185,-0.2199,-0.2198,-0.2204,-0.2204,-0.2204,-0.2203,0,-0.1787,-0.1814,-0.1849,-0.1888,-0.1899,-0.1918,-0.1951,-0.1971,-0.1992,-0.2021,-0.2029,-0.2062,-0.2093,-0.212,-0.216,-0.2173,-0.2204,-0.221,-0.2193,-0.2196,-0.2205,-0.2204,-0.223,-0.2234,-0.2225,-0.2225,-0.2225,0,-0.1796,-0.1816,-0.1857,-0.1874,-0.1893,-0.192,-0.194,-0.1966,-0.1986,-0.2023,-0.2038,-0.2069,-0.2097,-0.2144,-0.2172,-0.2203,-0.221,-0.2216,-0.2215,-0.2207,-0.221,-0.2209,-0.2211,-0.2217,-0.2217,-0.2217,-0.2217,0,-0.181,-0.1822,-0.185,-0.1881,-0.1904,-0.193,-0.1957,-0.197,-0.2001,-0.2022,-0.2054,-0.2074,-0.2115,-0.2147,-0.218,-0.22,-0.2213,-0.2217,-0.2221,-0.2215,-0.2204,-0.221,-0.2193,-0.2216,-0.2216,-0.2216,-0.2216,-0.2216,-0.1816,-0.1834,-0.1866,-0.1895,-0.1918,-0.1943,-0.1962,-0.1985,-0.2012,-0.2048,-0.2061,-0.2093,-0.2124,-0.217,-0.2189,-0.2215,-0.2217,-0.2223,-0.2224,-0.2226,-0.2224,-0.22,-0.2221,-0.2221,-0.2221,-0.2221,-0.2221,0,-0.1831,-0.1852,-0.1879,-0.1916,-0.1939,-0.1949,-0.1979,-0.1998,-0.2026,-0.2053,-0.2079,-0.2114,-0.2144,-0.2173,-0.2205,-0.2219,-0.2226,-0.2227,-0.2226,-0.223,-0.2221,-0.2214,-0.222,-0.222,-0.222,-0.222,-0.222,-0.222,-0.1842,-0.1873,-0.1888,-0.193,-0.1951,-0.1982,-0.1999,-0.2021,-0.2043,-0.2082,-0.2107,-0.2125,-0.2153,-0.2186,-0.2214,-0.2222,-0.2233,-0.2232,-0.2241,-0.2231,-0.2231,-0.2231,-0.2225,-0.2234,-0.2234,-0.2249,-0.2249,-0.2249]}]]